Tracking 28790 objects as of 19-Apr-2024
HD Live streaming from Space Station
objects crossing your sky now

DELTA 1 DEB

Track DELTA 1 DEB now!
10-day predictions


NORAD ID: 7489
Int'l Code: 1973-086FV
Perigee: 1,510.1 km
Apogee: 1,605.7 km
Inclination: 102.6 °
Period: 117.1 minutes
Semi major axis: 7928 km
RCS: 0.0301 m2 (small)
Launch date: November 6, 1973
Source: United States (US)
Launch site: AIR FORCE WESTERN TEST RANGE (AFWTR)

Note: This is SATELLITE DEBRIS
Your satellite tracking list
Your tracking list is empty




NASA's NSSDC Master Catalog

Two Line Element Set (TLE):
1 07489U 73086FV  24107.49482741  .00000020  00000-0  56660-3 0  9993
2 07489 102.5583 110.7089 0060251 300.0849 214.3811 12.29656565262005
Source of the keplerian elements: AFSPC